Other Public Products
Issued by NWS Grand Forks, ND

Home | Current Version | Previous Version | Graphics & Text | Print | Product List | Glossary On
Versions: 1 2 3 4 5 6 7 8 9 10 11 12 13 14 15 16 17 18 19 20 21 22 23 24 25 26 27 28 29 30 31 32 33 34 35 36 37 38 39 40 41 42 43 44 45 46 47 48 49 50
000
FPUS83 KFGF 291831
OPUFGF
PRAIRIE TO PINES WEATHER ROUNDUP
NATIONAL WEATHER SERVICE EASTERN NORTH DAKOTA/GRAND FORKS ND
100 PM CDT MON AUG 29 2016

 **SATELLITE DATA USED TO AUGMENT SKY COVER AT AUTOMATED STATIONS**
 *****  WEATHER ACROSS EASTERN NORTH DAKOTA  *****

CITY           SKY/WX    TMP DP  RH WIND       PRES   REMARKS
GRAND FORKS    MOSUNNY   76  64  66 N8        30.16F
6HR MIN TEMP:  66; 6HR MAX TEMP:  77;

GRAND FORKS AF SUNNY     76  63  63 NW9       30.18F
GRAND CITY NWS   N/A     77 N/A N/A NW9         N/A
BUXTON           N/A     79  71  76 NW12        N/A
DEVILS LAKE    SUNNY     70  50  49 NW9       30.25S
6HR MIN TEMP:  59; 6HR MAX TEMP:  70;

FARGO          PTSUNNY   79  71  76 NW8       30.15S
6HR MIN TEMP:  70; 6HR MAX TEMP:  79;

WAHPETON ARPT  CLOUDY    81  66  61 W8        30.14S
$$

 *****  WEATHER ACROSS CENTRAL AND WESTERN NORTH DAKOTA  *****

CITY           SKY/WX    TMP DP  RH WIND       PRES   REMARKS
JAMESTOWN      CLOUDY    73  61  65 VRB5      30.22S
6HR MIN TEMP:  64; 6HR MAX TEMP:  75;

BISMARCK       SUNNY     74  52  46 N9        30.28S
6HR MIN TEMP:  59; 6HR MAX TEMP:  74;

MINOT          SUNNY     70  47  43 N9        30.28S
6HR MIN TEMP:  54; 6HR MAX TEMP:  70;

MINOT AFB      SUNNY     68  46  45 N8        30.27S
6HR MIN TEMP:  48; 6HR MAX TEMP:  68;

GARRISON         N/A     71  48  43 N5        30.29R
6HR MIN TEMP:  56; 6HR MAX TEMP:  72;

WILLISTON      SUNNY     71  42  35 VRB7      30.31F
6HR MIN TEMP:  50; 6HR MAX TEMP:  71;

DICKINSON      SUNNY     74  45  35 NE10      30.29S
6HR MIN TEMP:  57; 6HR MAX TEMP:  74;

HETTINGER      SUNNY     76  51  41 E10       30.31S
6HR MIN TEMP:  62; 6HR MAX TEMP:  76;

$$

 *****  OTHER OBSERVATIONS NORTHEAST NORTH DAKOTA  *****

CITY           SKY/WX    TMP DP  RH WIND       PRES   REMARKS
WALHALLA       FAIR      70  66  88 NW9G17    30.20F
LANGDON        FAIR      72  52  49 NW13      30.23S
CAVALIER       FAIR      72  57  60 NW9G17    30.19F
GRAFTON        FAIR      75  63  64 NW10      30.19F
CANDO          FAIR      70  50  49 N8        30.27F
FORT TOTTEN      N/A     72  56  57 NW6       29.95S
ROLLA          FAIR      64  50  59 NW10      30.27S
RUGBY          FAIR      72  48  43 NW10      30.25F
 ***** THE ABOVE OBSERVATIONS ARE NON NWS ARE NOT QUALITY
        CONTROLLED AND MAY MIS-REPORT RAIN FOR SNOW...
$$

 *****  OTHER OBSERVATIONS SOUTHEAST NORTH DAKOTA *****

CITY           SKY/WX    TMP DP  RH WIND       PRES   REMARKS
COOPERSTOWN    NOT AVBL
VALLEY CITY    FAIR      73  68  83 N13       30.22F
OAKES            N/A    N/A N/A N/A MISG        N/A
GWINNER        FAIR      81  72  74 N9        30.16F
SHEYENNE NWR     N/A     79  70  73 NW7       29.95S
BUFFALO          N/A     77  64  64 NW13        N/A
WYNDMERE         N/A     82  70  65 W3          N/A
 ***** THE ABOVE OBSERVATIONS ARE NON NWS ARE NOT QUALITY
       CONTROLLED AND MAY MIS-REPORT RAIN FOR SNOW...
$$

  *****  WEATHER ACROSS NORTHERN MINNESOTA  *****

CITY           SKY/WX    TMP DP  RH WIND       PRES   REMARKS
FLAG ISLAND    PTSUNNY   72  64  78 CALM      30.10F
WARROAD        PTSUNNY   75  68  78 W12       30.13F
ROSEAU         SUNNY     77  66  69 NW9G18    30.13S
HALLOCK        SUNNY     73  61  64 NW16      30.15F
THF RVR FALLS  CLOUDY    72  66  81 W12       30.17S
6HR MIN TEMP:  66; 6HR MAX TEMP:  73; 6HR PCP: TRACE;

HALSTAD          N/A     75  68  79 NW8         N/A
FOSSTON        CLOUDY    73  66  78 W8        30.17S
BAUDETTE       PTSUNNY   72  66  81 N13G21    30.11S
6HR MIN TEMP:  63; 6HR MAX TEMP:  76; 6HR PCP:  0.03;

WASKISH          N/A     75  66  73 SW9       30.13S
CROOKSTON      MOSUNNY   75  66  73 N10       30.16S
$$
  *****  WEATHER ACROSS CENTRAL AND WEST MINNESOTA  *****

CITY           SKY/WX    TMP DP  RH WIND       PRES   REMARKS
BEMIDJI        CLOUDY    77  68  73 W17       30.15S
PARK RAPIDS    PTSUNNY   82  69  64 W14       30.16S
6HR MIN TEMP:  65; 6HR MAX TEMP:  83;

WADENA         SUNNY     79  66  65 SW6       30.16F
DETROIT LAKES  PTSUNNY   79  68  69 W9        30.18S
MOORHEAD       MOSUNNY   81  70  69 SW6       30.15F
FERGUS FALLS   PTSUNNY   82  68  61 W12       30.15S
ELBOW LAKE     MOCLDY    82  71  69 SW10G16   30.15F HAZE
MORRIS MN      NOT AVBL
STAPLES        SUNNY     81  64  57 SW8       30.16S
WHEATON        SUNNY     84  73  70 S7        30.15S HX  91
$$
  *****  WEATHER ELSEWHERE ACROSS MINNESOTA  *****

CITY           SKY/WX    TMP DP  RH WIND       PRES   REMARKS
DULUTH         CLOUDY    74  64  71 W12       30.13F
6HR MIN TEMP:  62; 6HR MAX TEMP:  75; 6HR PCP: TRACE;

INTRNTL FALLS  MOSUNNY   78  66  66 W10       30.10S
6HR MIN TEMP:  63; 6HR MAX TEMP:  78; 6HR PCP: TRACE;

ELY            CLOUDY    75  63  64 W9        30.12F
CLOQUET        CLOUDY    73  63  68 SW7       30.14S
BRAINERD       SUNNY     78  65  63 SW15      30.16R
6HR MIN TEMP:  64; 6HR MAX TEMP:  78; 6HR PCP: TRACE;

HIBBING        MOSUNNY   73  64  73 W10       30.13S
6HR MIN TEMP:  59; 6HR MAX TEMP:  73;

ALEXANDRIA     SUNNY     80  69  69 SW10      30.18S
6HR MIN TEMP:  64; 6HR MAX TEMP:  80; 6HR PCP:  0.06;

SAINT CLOUD    SUNNY     82  72  71 S10       30.14R
6HR MIN TEMP:  67; 6HR MAX TEMP:  82; 6HR PCP:  0.05;

MINNEAPOLIS    PTSUNNY   82  69  64 S13       30.16F
6HR MIN TEMP:  70; 6HR MAX TEMP:  82;

$$

  *****  WEATHER ACROSS SOUTH DAKOTA  *****

CITY           SKY/WX    TMP DP  RH WIND       PRES   REMARKS
SIOUX FALLS    PTSUNNY   82  70  66 SE13      30.20F
6HR MIN TEMP:  68; 6HR MAX TEMP:  82;

BROOKINGS      MOSUNNY   79  70  74 S9        30.19F
WATERTOWN      SUNNY     83  71  67 S16G23    30.15F
6HR MIN TEMP:  69; 6HR MAX TEMP:  83;

HURON          SUNNY     85  68  56 SE8       30.13F
6HR MIN TEMP:  67; 6HR MAX TEMP:  86;

SISSETON         N/A     82  70  66 MISG      30.13F
ABERDEEN       PTSUNNY   80  68  66 MISG      30.15F
6HR MIN TEMP:  62; 6HR MAX TEMP:  80;

MITCHELL       MOSUNNY   88  70  55 S9        30.15S HX  93
PIERRE         SUNNY     86  64  47 N14       30.13F
6HR MIN TEMP:  61; 6HR MAX TEMP:  86;

MOBRIDGE       SUNNY     82  57  42 N16       30.18F
RAPID CITY     SUNNY     76  57  51 N16       30.28F
6HR MIN TEMP:  61; 6HR MAX TEMP:  76;

$$

  *****  SOME WEATHER IN NEARBY STATES *****

CITY           SKY/WX    TMP DP  RH WIND       PRES   REMARKS
GLASGOW MT     SUNNY     69  44  40 SE12      30.28F
6HR MIN TEMP:  50; 6HR MAX TEMP:  69;

GREAT FALLS MT SUNNY     72  47  40 E5        30.22F
6HR MIN TEMP:  44; 6HR MAX TEMP:  72;

CHEYENNE WY    CLOUDY    78  38  23 E8        30.36F
6HR MIN TEMP:  54; 6HR MAX TEMP:  79;

SCOTTSBLUFF NE MOSUNNY   82  51  34 VRB3      30.25F
6HR MIN TEMP:  52; 6HR MAX TEMP:  83;

OMAHA NE       CLOUDY    83  72  69 SE6       30.19F
6HR MIN TEMP:  71; 6HR MAX TEMP:  83;

DES MOINES IA  PTSUNNY   82  75  79 SE6       30.21F
6HR MIN TEMP:  72; 6HR MAX TEMP:  82;

DAVENPORT IA   SUNNY     85  72  65 CALM      30.23F HX  91
6HR MIN TEMP:  68; 6HR MAX TEMP:  85;

CHICAGO IL     PTSUNNY   85  70  60 E7        30.23F
6HR MIN TEMP:  72; 6HR MAX TEMP:  85;

EAU CLAIRE WI  MOSUNNY   79  69  71 S12       30.17F
6HR MIN TEMP:  65; 6HR MAX TEMP:  80;

LA CROSSE WI   CLOUDY    83  71  67 S3        30.21F
6HR MIN TEMP:  67; 6HR MAX TEMP:  84;

$$

  *****  SOME NATIONAL WEATHER *****

CITY           SKY/WX    TMP DP  RH WIND       PRES   REMARKS
LA GUARDIA NY  MOSUNNY   91  59  33 NW9       30.07F HX  90
6HR MIN TEMP:  78; 6HR MAX TEMP:  91;                              C1F1C2F2C3F3C4F4C5F5C6F6C7F7C8F8C9F9CaFaCbFbCcFcCdFdCe!



USA.gov is the U.S. government's official web portal to all federal, state and local government web resources and services.